When you browse on this site, cookies collect data to enhance your experience and personalize the content and advertising you see.
Visit our Privacy Policy to learn more. By continuing to use the site, you agree to this use of cookies and data.
  • In Belgien
  • Länderverzeichnis
  • Für 7 Tage
  • Wassertemperatur
  • Wetterkarte
  • Widgets
  • user-avatar
    Anmelden

    Stündliche Wetter Samroung

    Heute, 6 Juni, Samstag

    Zeit Temperatur Niederschläge Wind Luftdruck Luftfeuchtigkeit
    00:00 +28°C° 0 mm 1 m/S 755 mmHg 89%
    01:00 +28°C° 0 mm 1 m/S 755 mmHg 89%
    02:00 +28°C° 0.1 mm 1 m/S 754 mmHg 89%
    03:00 +28°C° 0.1 mm 1 m/S 754 mmHg 90%
    04:00 +28°C° 0.1 mm 1 m/S 753 mmHg 90%
    05:00 +28°C° 0 mm 1 m/S 754 mmHg 89%
    06:00 +28°C° 0 mm 1 m/S 754 mmHg 88%
    07:00 +29°C° 0 mm 1 m/S 755 mmHg 85%
    08:00 +31°C° 0 mm 1 m/S 755 mmHg 78%
    09:00 +33°C° 0 mm 1 m/S 755 mmHg 70%
    10:00 +34°C° 0 mm 1 m/S 755 mmHg 63%
    11:00 +35°C° 0.6 mm 2 m/S 755 mmHg 66%
    12:00 +34°C° 0.6 mm 2 m/S 755 mmHg 70%
    13:00 +35°C° 0 mm 3 m/S 755 mmHg 65%
    14:00 +34°C° 0.4 mm 3 m/S 754 mmHg 68%
    15:00 +33°C° 0.4 mm 3 m/S 753 mmHg 72%
    16:00 +33°C° 0.4 mm 3 m/S 753 mmHg 76%
    17:00 +31°C° 0 mm 3 m/S 753 mmHg 80%
    18:00 +30°C° 0 mm 2 m/S 753 mmHg 84%
    19:00 +29°C° 0 mm 2 m/S 754 mmHg 87%
    20:00 +29°C° 0 mm 2 m/S 754 mmHg 88%
    21:00 +28°C° 0 mm 1 m/S 755 mmHg 89%
    22:00 +28°C° 0 mm 1 m/S 755 mmHg 89%
    23:00 +28°C° 0 mm 1 m/S 755 mmHg 90%

    Morgen, 7 Juni, Sonntag

    Zeit Temperatur Niederschläge Wind Luftdruck Luftfeuchtigkeit
    00:00 +28°C° 0 mm 1 m/S 755 mmHg 90%
    01:00 +28°C° 0 mm 1 m/S 755 mmHg 90%
    02:00 +28°C° 0 mm 1 m/S 755 mmHg 90%
    03:00 +27°C° 0 mm 1 m/S 754 mmHg 91%
    04:00 +27°C° 0 mm 1 m/S 754 mmHg 91%
    05:00 +28°C° 0 mm 1 m/S 754 mmHg 89%
    06:00 +29°C° 0 mm 1 m/S 754 mmHg 87%
    07:00 +29°C° 0 mm 1 m/S 755 mmHg 85%
    08:00 +31°C° 0.1 mm 1 m/S 755 mmHg 78%
    09:00 +32°C° 0.1 mm 2 m/S 755 mmHg 71%
    10:00 +35°C° 0.1 mm 2 m/S 755 mmHg 63%
    11:00 +34°C° 1.2 mm 3 m/S 755 mmHg 69%
    12:00 +33°C° 1.2 mm 3 m/S 755 mmHg 75%
    13:00 +33°C° 1.2 mm 3 m/S 754 mmHg 80%
    14:00 +31°C° 0.9 mm 3 m/S 753 mmHg 80%
    15:00 +31°C° 0.9 mm 3 m/S 753 mmHg 79%
    16:00 +31°C° 0.9 mm 3 m/S 752 mmHg 79%
    17:00 +30°C° 0 mm 3 m/S 752 mmHg 82%
    18:00 +29°C° 0 mm 2 m/S 753 mmHg 85%
    19:00 +28°C° 0 mm 1 m/S 753 mmHg 88%
    20:00 +28°C° 0 mm 1 m/S 754 mmHg 88%
    21:00 +28°C° 0 mm 2 m/S 754 mmHg 88%
    22:00 +28°C° 0 mm 2 m/S 755 mmHg 89%
    23:00 +28°C° 0 mm 2 m/S 754 mmHg 89%

    übermorgen, 8 Juni, Montag

    Zeit Temperatur Niederschläge Wind Luftdruck Luftfeuchtigkeit
    00:00 +28°C° 0 mm 2 m/S 754 mmHg 89%
    01:00 +28°C° 0 mm 2 m/S 754 mmHg 89%
    02:00 +27°C° 0 mm 2 m/S 754 mmHg 90%
    03:00 +27°C° 0 mm 2 m/S 753 mmHg 90%
    04:00 +27°C° 0 mm 2 m/S 753 mmHg 91%
    05:00 +28°C° 0 mm 2 m/S 753 mmHg 89%
    06:00 +28°C° 0 mm 1 m/S 754 mmHg 88%
    07:00 +29°C° 0 mm 1 m/S 755 mmHg 86%
    08:00 +30°C° 0.2 mm 2 m/S 755 mmHg 81%
    09:00 +31°C° 0.2 mm 2 m/S 755 mmHg 76%
    10:00 +33°C° 0.2 mm 3 m/S 755 mmHg 71%
    11:00 +34°C° 0.6 mm 3 m/S 755 mmHg 69%
    12:00 +34°C° 0.6 mm 3 m/S 754 mmHg 67%
    13:00 +34°C° 0.6 mm 3 m/S 754 mmHg 66%
    14:00 +34°C° 0 mm 3 m/S 753 mmHg 64%
    15:00 +34°C° 0 mm 2 m/S 753 mmHg 62%
    16:00 +34°C° 0 mm 2 m/S 752 mmHg 61%
    17:00 +32°C° 0 mm 2 m/S 752 mmHg 68%
    18:00 +30°C° 0 mm 2 m/S 753 mmHg 76%
    19:00 +29°C° 0 mm 3 m/S 753 mmHg 84%
    20:00 +29°C° 0 mm 2 m/S 754 mmHg 86%
    21:00 +28°C° 0 mm 2 m/S 754 mmHg 88%
    22:00 +28°C° 0 mm 2 m/S 755 mmHg 90%
    23:00 +28°C° 0 mm 2 m/S 755 mmHg 90%

    9 Juni, Dienstag

    Zeit Temperatur Niederschläge Wind Luftdruck Luftfeuchtigkeit
    00:00 +28°C° 0 mm 2 m/S 754 mmHg 91%
    01:00 +28°C° 0 mm 1 m/S 754 mmHg 91%
    02:00 +28°C° 0 mm 1 m/S 754 mmHg 91%
    03:00 +28°C° 0 mm 1 m/S 754 mmHg 92%
    04:00 +28°C° 0 mm 1 m/S 753 mmHg 92%
    05:00 +28°C° 0 mm 1 m/S 754 mmHg 90%
    06:00 +29°C° 0 mm 1 m/S 754 mmHg 88%
    07:00 +29°C° 0 mm 1 m/S 755 mmHg 86%
    08:00 +31°C° 0.2 mm 1 m/S 755 mmHg 80%
    09:00 +32°C° 0.2 mm 2 m/S 755 mmHg 73%
    10:00 +34°C° 0.2 mm 2 m/S 755 mmHg 67%
    11:00 +35°C° 0 mm 2 m/S 755 mmHg 64%
    12:00 +36°C° 0 mm 3 m/S 754 mmHg 61%
    13:00 +36°C° 0 mm 3 m/S 754 mmHg 58%
    14:00 +36°C° 0 mm 3 m/S 753 mmHg 60%
    15:00 +35°C° 0 mm 3 m/S 753 mmHg 62%
    16:00 +35°C° 0 mm 3 m/S 752 mmHg 64%
    17:00 +33°C° 0 mm 3 m/S 752 mmHg 70%
    18:00 +31°C° 0 mm 2 m/S 753 mmHg 77%
    19:00 +29°C° 0 mm 2 m/S 753 mmHg 84%
    20:00 +29°C° 0 mm 2 m/S 753 mmHg 85%
    21:00 +29°C° 0 mm 2 m/S 754 mmHg 87%
    22:00 +29°C° 0 mm 2 m/S 755 mmHg 88%
    23:00 +28°C° 0.3 mm 2 m/S 755 mmHg 89%

    10 Juni, Mittwoch

    Zeit Temperatur Niederschläge Wind Luftdruck Luftfeuchtigkeit
    00:00 +28°C° 0.3 mm 2 m/S 754 mmHg 91%
    01:00 +28°C° 0.3 mm 1 m/S 754 mmHg 92%
    02:00 +28°C° 0.1 mm 1 m/S 754 mmHg 92%
    03:00 +28°C° 0.1 mm 1 m/S 754 mmHg 92%
    04:00 +28°C° 0.1 mm 1 m/S 753 mmHg 93%
    05:00 +28°C° 0 mm 1 m/S 754 mmHg 91%
    06:00 +29°C° 0 mm 1 m/S 754 mmHg 89%
    07:00 +29°C° 0 mm 1 m/S 754 mmHg 87%
    08:00 +30°C° 0.5 mm 1 m/S 755 mmHg 83%
    09:00 +31°C° 0.5 mm 2 m/S 755 mmHg 78%
    10:00 +32°C° 0.5 mm 2 m/S 755 mmHg 74%
    11:00 +34°C° 0.6 mm 2 m/S 755 mmHg 69%
    12:00 +35°C° 0.6 mm 2 m/S 754 mmHg 65%
    13:00 +35°C° 0.6 mm 3 m/S 754 mmHg 60%
    14:00 +35°C° 0.7 mm 3 m/S 753 mmHg 65%
    15:00 +34°C° 0.7 mm 3 m/S 753 mmHg 70%
    16:00 +33°C° 0.7 mm 3 m/S 753 mmHg 74%
    17:00 +31°C° 0.6 mm 3 m/S 753 mmHg 79%
    18:00 +30°C° 0.6 mm 2 m/S 753 mmHg 84%
    19:00 +29°C° 0.6 mm 2 m/S 754 mmHg 89%
    20:00 +29°C° 0.4 mm 2 m/S 754 mmHg 89%
    21:00 +29°C° 0.4 mm 2 m/S 755 mmHg 89%
    22:00 +28°C° 0.4 mm 2 m/S 755 mmHg 89%
    23:00 +28°C° 0.2 mm 2 m/S 755 mmHg 90%

    11 Juni, Donnerstag

    Zeit Temperatur Niederschläge Wind Luftdruck Luftfeuchtigkeit
    00:00 +28°C° 0.2 mm 2 m/S 754 mmHg 92%
    01:00 +28°C° 0.2 mm 2 m/S 754 mmHg 93%
    02:00 +28°C° 0.2 mm 2 m/S 754 mmHg 93%
    03:00 +28°C° 0.2 mm 2 m/S 753 mmHg 93%
    04:00 +27°C° 0.2 mm 1 m/S 753 mmHg 93%
    05:00 +28°C° 0 mm 1 m/S 753 mmHg 92%
    06:00 +28°C° 0 mm 1 m/S 754 mmHg 91%
    07:00 +29°C° 0 mm 1 m/S 754 mmHg 89%
    08:00 +30°C° 0.5 mm 1 m/S 754 mmHg 83%
    09:00 +31°C° 0.5 mm 1 m/S 754 mmHg 76%
    10:00 +31°C° 0.5 mm 0 m/S 755 mmHg 70%
    11:00 +33°C° 0.3 mm 1 m/S 754 mmHg 69%
    12:00 +34°C° 0.3 mm 2 m/S 754 mmHg 69%
    13:00 +34°C° 0.3 mm 2 m/S 753 mmHg 69%
    14:00 +32°C° 0.2 mm 2 m/S 753 mmHg 71%
    15:00 +32°C° 0.2 mm 2 m/S 752 mmHg 73%
    16:00 +31°C° 0.2 mm 2 m/S 752 mmHg 75%
    17:00 +30°C° 0.1 mm 2 m/S 752 mmHg 79%
    18:00 +29°C° 0.1 mm 2 m/S 753 mmHg 84%
    19:00 +28°C° 0.1 mm 2 m/S 753 mmHg 88%
    20:00 +28°C° 0 mm 2 m/S 753 mmHg 89%
    21:00 +28°C° 0 mm 2 m/S 754 mmHg 90%
    22:00 +28°C° 0 mm 2 m/S 754 mmHg 91%
    23:00 +28°C° 0 mm 2 m/S 754 mmHg 91%
    Mehr zeigen